Date String (YYYY-MM-DD hh:mm:ss) UTC,Instrument flags,Ambient pressure (hPa),Sample flow (lpm),Bypass flow (lpm),Sample temperature (°C),Ambient temperature (°C),ASC tube jacket temperature (°C),LED temperature (°C),Box temperature (°C),Sample RH (%),Span deviation,Mass concentration (μg/m³),Mass concentration (μg/m³),Mass concentration (μg/m³)
DateTimeUTC,F1_M11,P_M11,Q1_M11,Q2_M11,T1_M11,T2_M11,T3_M11,T4_M11,T5_M11,U1_M11,ZSPAN_M11,X2_M11,X0_M11,X1_M11
2022-11-06 21:00:00,,0824.9,5.01,0.00,21.8,20.6,00.0,30.5,23.7,16.2,0000.0,0002.88,0005.39,0002.05
2022-11-06 21:01:00,,0824.9,4.99,0.00,21.8,20.5,00.0,30.5,23.7,15.9,0000.0,0002.73,0005.20,0001.88
2022-11-06 21:02:00,,0824.9,4.98,0.00,21.8,20.6,00.0,30.5,23.7,16.1,0000.0,0002.56,0005.11,0001.67
2022-11-06 21:03:00,,0824.9,5.02,0.00,21.8,20.5,00.0,30.5,23.7,16.2,0000.0,0002.41,0005.14,0001.53
2022-11-06 21:04:00,,0824.9,4.99,0.00,21.8,20.6,00.0,30.5,23.7,16.1,0000.0,0002.32,0005.13,0001.44
2022-11-06 21:05:00,,0824.9,4.99,0.00,21.8,20.6,00.0,30.5,23.8,15.8,0000.0,0002.25,0004.85,0001.42
2022-11-06 21:06:00,,0824.9,5.01,0.00,21.8,20.7,00.0,30.6,23.8,16.0,0000.0,0002.21,0005.06,0001.41
2022-11-06 21:07:00,,0824.9,4.99,0.00,21.9,20.7,00.0,30.6,23.8,15.8,0000.0,0002.24,0005.96,0001.41
2022-11-06 21:08:00,,0825.0,5.00,0.00,21.9,20.7,00.0,30.6,23.8,15.7,0000.0,0002.24,0006.60,0001.42
2022-11-06 21:09:00,,0825.1,5.01,0.00,21.9,20.7,00.0,30.6,23.8,15.7,0000.0,0002.24,0006.65,0001.43
2022-11-06 21:10:00,,0825.0,4.99,0.00,21.9,20.8,00.0,30.6,23.8,15.6,0000.0,0002.27,0007.22,0001.45
2022-11-06 21:11:00,,0825.1,5.01,0.00,21.9,20.8,00.0,30.6,23.8,15.5,0000.0,0002.27,0007.78,0001.46
2022-11-06 21:12:00,,0825.1,5.00,0.00,21.9,20.8,00.0,30.6,23.8,15.6,0000.0,0002.27,0007.84,0001.46
2022-11-06 21:13:00,,0825.2,4.99,0.00,21.9,20.8,00.0,30.6,23.8,16.0,0000.0,0002.22,0007.77,0001.45
2022-11-06 21:14:00,,0825.1,5.02,0.00,21.9,20.8,00.0,30.6,23.9,16.0,0000.0,0002.28,0007.78,0001.45
2022-11-06 21:15:00,,0825.2,4.98,0.00,21.9,20.8,00.0,30.7,23.9,15.9,0000.0,0002.30,0007.59,0001.46
2022-11-06 21:16:00,,0825.2,5.00,0.00,21.9,20.8,00.0,30.7,23.9,15.7,0000.0,0002.36,0007.75,0001.47
2022-11-06 21:17:00,,0825.2,5.01,0.00,22.0,20.8,00.0,30.7,23.9,15.6,0000.0,0002.39,0008.01,0001.47
2022-11-06 21:18:00,,0825.2,4.99,0.00,22.0,20.8,00.0,30.7,23.9,15.5,0000.0,0002.38,0007.57,0001.47
2022-11-06 21:19:00,,0825.2,5.02,0.00,22.0,20.8,00.0,30.7,23.9,15.6,0000.0,0002.43,0007.22,0001.47
2022-11-06 21:20:00,,0825.2,4.99,0.00,22.0,20.8,00.0,30.7,23.9,15.6,0000.0,0002.42,0007.14,0001.46
2022-11-06 21:21:00,,0825.2,5.01,0.00,22.0,20.8,00.0,30.7,23.9,15.6,0000.0,0002.41,0007.02,0001.44
2022-11-06 21:22:00,,0825.3,5.00,0.00,22.0,20.8,00.0,30.7,23.9,15.6,0000.0,0002.42,0006.59,0001.43
2022-11-06 21:23:00,,0825.3,5.00,0.00,22.0,20.8,00.0,30.7,23.9,15.6,0000.0,0002.42,0007.83,0001.44
2022-11-06 21:24:00,,0825.4,5.01,0.00,22.0,20.8,00.0,30.7,24.0,15.7,0000.0,0002.44,0008.58,0001.44
2022-11-06 21:25:00,,0825.3,4.99,0.00,22.0,20.9,00.0,30.7,24.0,15.8,0000.0,0002.38,0008.64,0001.44
2022-11-06 21:26:00,,0825.4,5.01,0.00,22.0,20.9,00.0,30.8,24.0,15.2,0000.0,0002.34,0008.61,0001.44
2022-11-06 21:27:00,,0825.3,4.99,0.00,22.0,20.9,00.0,30.8,24.0,15.3,0000.0,0002.26,0008.70,0001.44
2022-11-06 21:28:00,,0825.4,5.01,0.00,22.1,20.9,00.0,30.8,24.0,15.2,0000.0,0002.27,0008.51,0001.44
2022-11-06 21:29:00,,0825.4,4.99,0.00,22.1,20.9,00.0,30.8,24.0,15.4,0000.0,0002.35,0008.65,0001.44
2022-11-06 21:30:00,,0825.4,5.01,0.00,22.1,20.9,00.0,30.8,24.0,15.5,0000.0,0002.37,0009.02,0001.44
2022-11-06 21:31:00,,0825.4,5.00,0.00,22.1,21.0,00.0,30.8,24.0,15.4,0000.0,0002.42,0009.24,0001.44
2022-11-06 21:32:00,,0825.4,4.99,0.00,22.1,20.9,00.0,30.8,24.0,15.3,0000.0,0002.40,0009.03,0001.44
2022-11-06 21:33:00,,0825.5,5.02,0.00,22.1,20.9,00.0,30.8,24.0,15.4,0000.0,0002.37,0008.68,0001.46
2022-11-06 21:34:00,,0825.5,5.00,0.00,22.1,21.0,00.0,30.8,24.0,15.3,0000.0,0002.38,0008.52,0001.48
2022-11-06 21:35:00,,0825.5,4.99,0.00,22.1,21.0,00.0,30.8,24.0,15.3,0000.0,0002.40,0007.59,0001.48
2022-11-06 21:36:00,,0825.4,5.01,0.00,22.1,21.0,00.0,30.8,24.1,15.1,0000.0,0002.45,0007.54,0001.49
2022-11-06 21:37:00,,0825.4,4.99,0.00,22.1,21.0,00.0,30.9,24.1,15.2,0000.0,0002.48,0007.85,0001.49
2022-11-06 21:38:00,,0825.5,5.00,0.00,22.1,21.0,00.0,30.9,24.1,15.3,0000.0,0002.52,0007.89,0001.50
2022-11-06 21:39:00,,0825.4,5.02,0.00,22.1,21.0,00.0,30.9,24.1,15.3,0000.0,0002.51,0007.77,0001.50
2022-11-06 21:40:00,,0825.5,4.99,0.00,22.1,21.0,00.0,30.9,24.1,15.2,0000.0,0002.50,0007.73,0001.51
2022-11-06 21:41:00,,0825.4,5.01,0.00,22.1,21.0,00.0,30.9,24.1,15.1,0000.0,0002.44,0007.32,0001.52
2022-11-06 21:42:00,,0825.4,5.01,0.00,22.1,21.0,00.0,30.9,24.1,15.4,0000.0,0002.44,0007.17,0001.54
2022-11-06 21:43:00,,0825.5,4.99,0.00,22.1,20.9,00.0,30.9,24.1,15.2,0000.0,0002.44,0007.14,0001.55
2022-11-06 21:44:00,,0825.5,5.01,0.00,22.1,20.9,00.0,30.9,24.1,15.5,0000.0,0002.44,0007.02,0001.54
2022-11-06 21:45:00,,0825.4,5.00,0.00,22.1,20.9,00.0,30.9,24.1,15.2,0000.0,0002.40,0006.11,0001.53
2022-11-06 21:46:00,,0825.5,4.98,0.00,22.2,20.9,00.0,30.9,24.1,15.1,0000.0,0002.40,0006.23,0001.51
2022-11-06 21:47:00,,0825.5,5.01,0.00,22.2,20.9,00.0,30.9,24.1,15.3,0000.0,0002.35,0006.31,0001.53
2022-11-06 21:48:00,,0825.4,4.98,0.00,22.2,20.9,00.0,30.9,24.1,15.4,0000.0,0002.29,0005.71,0001.53
2022-11-06 21:49:00,,0825.4,5.02,0.00,22.2,21.0,00.0,30.9,24.1,15.2,0000.0,0002.30,0005.34,0001.54
2022-11-06 21:50:00,,0825.4,4.98,0.00,22.2,21.0,00.0,30.9,24.1,15.5,0000.0,0002.28,0005.36,0001.54
2022-11-06 21:51:00,,0825.4,5.01,0.00,22.2,21.0,00.0,30.9,24.1,15.4,0000.0,0002.23,0005.18,0001.55
2022-11-06 21:52:00,,0825.5,5.00,0.00,22.2,21.0,00.0,30.9,24.1,15.4,0000.0,0002.23,0005.26,0001.57
2022-11-06 21:53:00,,0825.4,4.99,0.00,22.2,21.0,00.0,30.9,24.1,15.5,0000.0,0002.27,0005.84,0001.58
2022-11-06 21:54:00,,0825.4,5.01,0.00,22.2,20.9,00.0,30.9,24.1,15.6,0000.0,0002.27,0005.89,0001.61
2022-11-06 21:55:00,,0825.5,5.01,0.00,22.2,20.9,00.0,30.9,24.1,15.3,0000.0,0002.30,0006.13,0001.65
2022-11-06 21:56:00,,0825.5,5.00,0.00,22.2,20.9,00.0,30.9,24.1,15.4,0000.0,0002.35,0006.86,0001.68
2022-11-06 21:57:00,,0825.5,5.00,0.00,22.2,20.9,00.0,30.9,24.1,15.6,0000.0,0002.39,0006.81,0001.76
2022-11-06 21:58:00,,0825.4,4.99,0.00,22.2,21.0,00.0,30.9,24.1,15.9,0000.0,0002.49,0007.37,0001.80
2022-11-06 21:59:00,,0825.5,5.00,0.00,22.2,21.0,00.0,30.9,24.1,15.8,0000.0,0002.55,0007.87,0001.81
